KF0ZH Weather Reports


time (UTC)temp
C
wind
direction
speed
KPH
gust
KPH
rain 1hr
cm
rain 24hr
cm
rain mn
cm
humidity
%
barometer
mb
20260502212602 19 171 0.0 11.3 0.00 0.25 0.25 41 1010.7
20260502212102 19 246 11.3 16.1 0.00 0.25 0.25 40 1010.8
20260502211604 19 236 29.0 29.0 0.00 0.25 0.25 40 1010.8
20260502210603 20 268 0.0 4.8 0.00 0.25 0.25 40 1011.1
20260502205603 19 246 4.8 6.4 0.00 0.25 0.25 39 1011.4
20260502205102 19 271 25.7 25.7 0.00 0.25 0.25 40 1011.5
20260502204601 19 234 8.0 22.5 0.00 0.25 0.25 40 1011.6
20260502204102 18 261 0.0 11.3 0.00 0.25 0.25 41 1011.7
20260502203602 18 296 0.0 9.7 0.00 0.25 0.25 40 1011.8
20260502203104 19 220 8.0 20.9 0.00 0.25 0.25 40 1011.9
20260502202602 18 219 9.7 11.3 0.00 0.25 0.25 42 1012.0
20260502202101 18 213 8.0 12.9 0.00 0.25 0.25 41 1012.1
20260502200602 18 278 9.7 11.3 0.00 0.25 0.25 42 1012.4
20260502195101 18 226 8.0 16.1 0.00 0.25 0.25 42 1012.9
20260502194102 17 202 8.0 14.5 0.00 0.25 0.25 42 1013.1
20260502193602 17 234 6.4 20.9 0.00 0.25 0.25 41 1013.2
20260502192102 17 171 11.3 25.7 0.00 0.25 0.25 42 1013.4
20260502191102 16 227 14.5 17.7 0.00 0.25 0.25 43 1013.6
20260502190604 16 229 0.0 6.4 0.00 0.25 0.25 42 1013.8
20260502190110 17 136 8.0 12.9 0.00 0.25 0.25 43 1013.9
20260502185601 17 195 9.7 14.5 0.00 0.25 0.25 41 1014.1
20260502185103 16 164 12.9 19.3 0.00 0.25 0.25 41 1014.2
20260502184101 16 251 22.5 24.1 0.00 0.25 0.25 44 1014.4
20260502183602 16 198 14.5 20.9 0.00 0.25 0.25 43 1014.5
20260502183103 15 270 0.0 8.0 0.00 0.25 0.25 45 1014.5
20260502182602 15 203 0.0 16.1 0.25 0.25 0.25 43 1014.8
20260502182101 15 174 6.4 17.7 0.25 0.25 0.25 45 1014.7
20260502181310 15 296 6.4 8.0 0.25 0.25 0.25 45 1015.3
20260502181102 15 203 9.7 14.5 0.25 0.25 0.25 45 1015.0
20260502180606 15 210 6.4 11.3 0.25 0.25 0.25 45 1015.1
20260502170202 14 262 17.7 25.7 0.00 0.00 0.00 44 1016.3
20260502164201 13 272 6.4 9.7 0.00 0.00 0.00 48 1016.5
20260502163702 13 203 6.4 16.1 0.00 0.00 0.00 47 1016.5
20260502163202 13 289 0.0 6.4 0.00 0.00 0.00 47 1016.7
20260502162703 13 234 6.4 14.5 0.00 0.00 0.00 46 1016.7
20260502162202 13 222 12.9 16.1 0.00 0.00 0.00 47 1016.8
20260502161701 12 232 9.7 19.3 0.00 0.00 0.00 48 1016.9
20260502161202 12 336 0.0 11.3 0.00 0.00 0.00 49 1017.0
20260502160202 12 244 12.9 20.9 0.00 0.00 0.00 47 1017.1
20260502151702 12 239 8.0 14.5 0.00 0.00 0.00 51 1017.6
20260502150702 12 215 6.4 14.5 0.00 0.00 0.00 55 1017.7
20260502150201 12 168 0.0 0.0 0.00 0.00 0.00 57 1017.7
20260502130701 6 262 6.4 11.3 0.00 0.00 0.00 75 1018.5
20260502122701 4 268 0.0 8.0 0.00 0.00 0.00 78 1018.5
20260502121701 4 270 0.0 8.0 0.00 0.00 0.00 79 1018.3
20260502121201 3 188 0.0 8.0 0.00 0.00 0.00 80 1018.5
20260502120703 3 219 0.0 0.0 0.00 0.00 0.00 81 1018.5
20260502115735 3 240 0.0 0.0 0.00 0.00 0.00 82 1018.3
20260502115702 3 240 0.0 0.0 0.00 0.00 0.00 82 1018.3
20260502114705 2 240 0.0 0.0 0.00 0.00 0.00 82 1018.1
20260502114201 2 240 0.0 0.0 0.00 0.00 0.00 82 1018.1
20260502113201 2 240 0.0 0.0 0.00 0.00 0.00 82 1018.2
20260502111701 3 240 0.0 0.0 0.00 0.00 0.00 81 1018.1
20260502111427 3 240 0.0 0.0 0.00 0.00 0.00 80 1018.0
20260502111202 3 240 0.0 0.0 0.00 0.00 0.00 80 1018.0
20260502110704 3 240 0.0 0.0 0.00 0.00 0.00 80 1018.0
20260502104702 3 254 0.0 0.0 0.00 0.00 0.00 80 1018.1
20260502104202 3 254 0.0 0.0 0.00 0.00 0.00 80 1018.0
20260502102701 3 254 0.0 0.0 0.00 0.00 0.00 78 1018.0
20260502101746 3 254 0.0 0.0 0.00 0.00 0.00 78 1018.0
20260502101703 3 254 0.0 0.0 0.00 0.00 0.00 78 1018.0
20260502101202 3 254 0.0 0.0 0.00 0.00 0.00 77 1017.9
20260502100705 3 254 0.0 0.0 0.00 0.00 0.00 77 1018.0
20260502100305 3 254 0.0 0.0 0.00 0.00 0.00 77 1017.9
20260502100209 3 254 0.0 0.0 0.00 0.00 0.00 77 1017.9
20260502091201 5 244 0.0 6.4 0.00 0.00 0.00 73 1017.8
20260502090701 5 243 0.0 4.8 0.00 0.00 0.00 73 1017.8
20260502090313 5 271 0.0 0.0 0.00 0.00 0.00 73 1017.8
20260502090201 5 271 0.0 0.0 0.00 0.00 0.00 73 1017.8
20260502071202 4 330 0.0 0.0 0.00 0.00 0.00 75 1017.9
20260502070702 4 330 0.0 0.0 0.00 0.00 0.00 75 1017.9
20260502065701 4 330 0.0 0.0 0.00 0.00 0.00 74 1017.9
20260502065332 4 330 0.0 0.0 0.00 0.00 0.00 74 1018.1
20260502065203 4 330 0.0 0.0 0.00 0.00 0.00 74 1018.1
20260502064702 4 330 0.0 0.0 0.00 0.00 0.00 73 1018.0
20260502064204 4 330 0.0 0.0 0.00 0.00 0.00 73 1018.0
20260502063701 5 330 0.0 0.0 0.00 0.00 0.00 73 1018.0
20260502062701 5 330 0.0 0.0 0.00 0.00 0.00 71 1018.0
20260502062201 5 330 0.0 0.0 0.00 0.00 0.00 71 1018.0
20260502061702 5 330 0.0 0.0 0.00 0.00 0.00 71 1018.0
20260502060701 5 330 0.0 0.0 0.00 0.00 0.00 71 1018.0
20260502060335 5 330 0.0 0.0 0.00 0.00 0.00 71 1018.0
20260502060201 5 330 0.0 0.0 0.00 0.00 0.00 71 1018.0
20260502055702 5 330 0.0 0.0 0.00 0.00 0.00 72 1018.0
20260502055203 5 330 0.0 0.0 0.00 0.00 0.00 73 1017.9
20260502054701 5 330 0.0 0.0 0.00 0.00 0.00 73 1018.0
20260502054233 4 330 0.0 0.0 0.00 0.00 0.00 74 1018.0
20260502054201 4 330 0.0 0.0 0.00 0.00 0.00 74 1018.0
20260502053701 4 330 0.0 0.0 0.00 0.00 0.00 73 1018.0
20260502053429 5 330 0.0 0.0 0.00 0.00 0.00 73 1018.0
20260502053202 5 330 0.0 0.0 0.00 0.00 0.00 73 1018.0
20260502052701 5 330 0.0 0.0 0.00 0.00 0.00 73 1018.0
20260502052247 5 330 0.0 0.0 0.00 0.00 0.00 72 1018.0
20260502052201 5 330 0.0 0.0 0.00 0.00 0.00 72 1018.0
20260502051702 5 330 0.0 0.0 0.00 0.00 0.00 71 1018.0
20260502051201 5 330 0.0 0.0 0.00 0.00 0.00 71 1017.9
20260502050701 5 330 0.0 0.0 0.00 0.00 0.00 70 1017.9
20260502050203 5 330 0.0 0.0 0.00 0.00 0.00 70 1017.9
20260502045701 5 330 0.0 0.0 0.00 0.00 0.00 69 1017.9
20260502045203 5 330 0.0 0.0 0.00 0.00 0.00 69 1017.8
20260502044702 6 330 0.0 0.0 0.00 0.00 0.00 68 1017.8
20260502044201 6 330 0.0 0.0 0.00 0.00 0.00 67 1017.8
20260502043702 6 330 0.0 0.0 0.00 0.00 0.00 67 1017.8
20260502043202 6 330 0.0 0.0 0.00 0.00 0.00 67 1017.8
20260502042701 6 330 0.0 0.0 0.00 0.00 0.00 67 1017.8
20260502042202 6 330 0.0 0.0 0.00 0.00 0.00 66 1017.7
20260502041702 6 330 0.0 0.0 0.00 0.00 0.00 66 1017.7
20260502041235 6 330 0.0 0.0 0.00 0.00 0.00 66 1017.7
20260502041201 6 330 0.0 0.0 0.00 0.00 0.00 66 1017.7
20260502040701 6 330 0.0 0.0 0.00 0.00 0.00 65 1017.7
20260502040201 6 330 0.0 0.0 0.00 0.00 0.00 64 1017.7
20260502035702 6 330 0.0 0.0 0.00 0.00 0.00 65 1017.8
20260502035358 6 330 0.0 0.0 0.00 0.00 0.00 65 1017.8
20260502035313 6 330 0.0 0.0 0.00 0.00 0.00 65 1017.8
20260502035201 6 330 0.0 0.0 0.00 0.00 0.00 65 1017.8
20260502034701 6 330 0.0 0.0 0.00 0.00 0.00 65 1017.8
20260502034202 6 330 0.0 0.0 0.00 0.00 0.00 64 1017.8
20260502033701 6 330 0.0 0.0 0.00 0.00 0.00 65 1017.8
20260502033201 7 330 0.0 0.0 0.00 0.00 0.00 64 1017.8
20260502032204 6 330 0.0 0.0 0.00 0.00 0.00 64 1017.8
20260502031702 7 330 0.0 0.0 0.00 0.00 0.00 65 1017.8
20260502031201 7 330 0.0 0.0 0.00 0.00 0.00 64 1017.9
20260502030701 7 330 0.0 0.0 0.00 0.00 0.00 64 1017.8
20260502025703 7 330 0.0 0.0 0.00 0.00 0.00 63 1017.7
20260502025201 7 330 0.0 0.0 0.00 0.00 0.00 62 1017.8
20260502024701 7 330 0.0 0.0 0.00 0.00 0.00 62 1017.8
20260502024202 7 330 0.0 0.0 0.00 0.00 0.00 61 1017.7
20260502023701 7 330 0.0 0.0 0.00 0.00 0.00 60 1017.7
20260502023201 7 330 0.0 0.0 0.00 0.00 0.00 60 1017.7
20260502022701 7 330 0.0 0.0 0.00 0.00 0.00 59 1017.7
20260502022201 8 330 0.0 0.0 0.00 0.00 0.00 58 1017.6
20260502020701 8 330 0.0 0.0 0.00 0.00 0.00 57 1017.6
20260502015701 8 330 0.0 0.0 0.00 0.00 0.00 55 1017.4
20260502015201 8 330 0.0 0.0 0.00 0.00 0.00 54 1017.3
20260502014700 9 330 0.0 0.0 0.00 0.00 0.00 54 1017.3
20260502013201 10 330 0.0 0.0 0.00 0.00 0.00 51 1017.1
20260502012203 10 330 0.0 0.0 0.00 0.00 0.00 49 1017.0
20260502011702 10 330 0.0 0.0 0.00 0.00 0.00 49 1017.0
20260502011202 10 330 0.0 0.0 0.00 0.00 0.00 49 1017.0
20260502010700 10 330 0.0 0.0 0.00 0.00 0.00 48 1017.0
20260502010201 11 330 0.0 0.0 0.00 0.00 0.00 48 1016.9
20260502005701 11 330 0.0 0.0 0.00 0.00 0.00 47 1016.9
20260502005203 11 330 0.0 0.0 0.00 0.00 0.00 47 1016.9
20260502004701 11 330 0.0 0.0 0.00 0.00 0.00 47 1016.8
20260502004200 11 330 0.0 3.2 0.00 0.00 0.00 46 1016.8
20260502003704 11 309 6.4 9.7 0.00 0.00 0.00 46 1016.8
20260502003201 11 250 0.0 4.8 0.00 0.00 0.00 46 1016.8
20260502002701 11 250 0.0 0.0 0.00 0.00 0.00 46 1016.8
20260502002201 11 261 6.4 6.4 0.00 0.00 0.00 46 1016.8
20260502001701 11 278 6.4 12.9 0.00 0.00 0.00 46 1016.7
20260502001201 11 310 0.0 0.0 0.00 0.00 0.00 46 1016.7
20260502000701 11 340 9.7 14.5 0.00 0.00 0.00 46 1016.7
20260502000203 11 320 0.0 14.5 0.00 0.00 0.00 46 1016.7
20260501235700 11 320 0.0 4.8 0.00 0.00 0.00 46 1016.8
20260501235201 11 338 9.7 11.3 0.00 0.00 0.00 47 1016.9
20260501234701 11 326 4.8 8.0 0.00 0.00 0.00 46 1017.0
20260501234201 11 315 11.3 12.9 0.00 0.00 0.00 45 1017.1
20260501233701 11 303 0.0 0.0 0.00 0.00 0.00 48 1017.1
20260501233202 11 303 0.0 0.0 0.00 0.00 0.00 46 1017.2
20260501232700 11 303 0.0 0.0 0.00 0.00 0.00 46 1017.2
20260501232202 11 347 0.0 3.2 0.00 0.00 0.00 47 1017.1
20260501231700 11 244 0.0 8.0 0.00 0.00 0.00 47 1017.1
20260501231200 11 285 0.0 4.8 0.00 0.00 0.00 47 1017.1
20260501230701 11 320 0.0 12.9 0.00 0.00 0.00 46 1017.1
20260501230200 11 329 6.4 16.1 0.00 0.00 0.00 45 1017.0
20260501225709 11 319 3.2 16.1 0.00 0.00 0.00 45 1017.0
20260501225201 11 281 0.0 19.3 0.00 0.00 0.00 46 1017.0
20260501224700 11 213 0.0 6.4 0.00 0.00 0.00 45 1016.9
20260501223700 11 348 0.0 11.3 0.00 0.00 0.00 45 1017.0
20260501222701 11 289 0.0 0.0 0.00 0.00 0.00 48 1017.0
20260501222202 11 289 0.0 0.0 0.00 0.00 0.00 48 1017.0
20260501221701 11 289 0.0 0.0 0.00 0.00 0.00 47 1017.1
20260501221201 10 289 0.0 0.0 0.00 0.00 0.00 48 1017.1
20260501220700 11 312 0.0 12.9 0.00 0.00 0.00 47 1017.2
20260501220201 11 343 0.0 0.0 0.00 0.00 0.00 47 1017.1
20260501215700 11 319 6.4 19.3 0.00 0.00 0.00 47 1017.1
20260501214704 11 323 0.0 8.0 0.00 0.00 0.00 46 1017.1
20260501214201 11 309 4.8 12.9 0.00 0.00 0.00 46 1017.1
20260501213700 11 300 0.0 20.9 0.00 0.00 0.00 46 1017.1
20260501213200 11 262 4.8 16.1 0.00 0.00 0.00 48 1017.1